DELTA 1 DEB, 42578

Orbit data source: Space-Track

DELTA 1 DEB, 42578 is space debris in LEO originally from a launch on Tue, 06 Nov 1973 UTC launched from the Air Force Western Test Range (AFWTR). Debris objects in space refer to the collection of defunct objects orbiting the Earth. Examples of debris include non-operational satellites, rocket bodies, and fragments generated from explosions, collisions, or faulty payload assembly.

Loading next visibility...
DELTA 1 DEB details
Identifier
42578, 1973-086HS
Orbit
LEO
Last TLE update2 months ago
Origin
Flag of USGSFC (US)
ManufacturerUnknown
MissionSpacecraft
Bus & MotorUnknown
MassUnknown
Launch date (UTC)
1973-11-06 (51 years ago)
Launch vehicleUnknown
Launch site
Air Force Western Test Range (AFWTR)
Object type
Payload
Rocket body
Debris
Shape & HBRUnknown
Radar Cross SectionSmall (<0.1 m²)

Expand to show TLE details & history

TLE from 2 months ago
0 DELTA 1 DEB
1 42578U 73086HS  24268.06805642 -.00001148  00000-0 -14988-1 0  9990
2 42578 100.7564 313.4660 0790281   1.6132 358.7179 11.34217698  9588
Epoch: 2024-09-24T01:38Z
Definitive object data (Epoch: 2024-09-24T01:38:00.074Z)
Latitude-0°
Longitude-74.42187°
Altitude1,330.811 km
Speed7.471 km/s
True Right ascension20h 53m 51s
True Declination0° 00' 00"
Sunlit
Object was in full shadow at TLE epoch
Visualization TLE readout
Latitude-75.62389°
Longitude110.70572°
Altitude1,375.633 km
Speed7.443 km/s
Apparent Right ascension20h 55m 31s
Apparent Declination-75° 34' 46"
Sunlit
Object is in daylight
Visualization observer readout
Local Sidereal Time09:02:56
Azimuth179.208° S
Elevation-54.327°
Doppler factor1
Orbital elements
Apogee altitude2,648.247 km
Perigee altitude1,326.061 km
Semi-major axis8,365.291 km
Eccentricity0.0790281
Inclination100.7564°
RAAN313.466°
Arg. of periapsis1.6132°
True anomaly358.49318°
Mean anomaly358.7179°
Eccentric anomaly358.6079°
Mean motion2.83675 °/min
BSTAR-0.014988
Orbital period126.91 mins
Loading maneuver chart data...
Loading historical data...
Loading historical data...
Loading historical data...
Loading historical data...
Loading historical data...
Loading historical data...
Loading historical data...

DELTA 1 DEB Visibility forecast

Observer location: undefined°, undefined

Span
Click to sort rows by Start time (UTC) header in descending order
Start Az.
Max El. time (UTC)
Max El. Az.
Max El.
End time (UTC)
End Az.
10 mins2024-12-05 12:27:26.912Z50.545° ENE2024-12-05 12:32:26.912Z76.388° E14.543°2024-12-05 12:37:26.912Z105.58° ESE
21 mins2024-12-05 14:28:26.912Z19.157° NNE2024-12-05 14:40:26.912Z116.101° SE43.745°2024-12-05 14:49:26.912Z187.376° SSW
18 mins2024-12-05 16:33:26.912Z2.368° NNE2024-12-05 16:43:26.912Z306.017° NW29.396°2024-12-05 16:51:26.912Z252.88° W
13 mins2024-12-05 22:31:26.912Z62.897° ENE2024-12-05 22:37:26.912Z35.747° NE15.878°2024-12-05 22:44:26.912Z4.716° NNE
23 mins2024-12-06 00:27:26.912Z124.912° SE2024-12-06 00:38:26.912Z53.97° ENE37.487°2024-12-06 00:50:26.912Z352.335° N
25 mins2024-12-06 02:30:26.912Z186.157° SSW2024-12-06 02:41:26.912Z256.745° W40.106°2024-12-06 02:55:26.912Z337.889° N
5 mins2024-12-06 04:47:26.912Z274.816° WNW2024-12-06 04:49:26.912Z283.769° WNW11.272°2024-12-06 04:52:26.912Z296.854° NW
|